User: anonymous   Login
Location: Baumgarten
(49.0970°N, 12.7493°E)
Time: 22:13:20
(UTC+00:00)
Language:

Cosmos 371 Rocket - Orbit

View from above orbital plane
View from above orbital plane
View from above satellite
View from above satellite

Ground track
Ground track

The orbit data is extracted from the following two-line orbital elements,

1  4579U 70083B   20263.58978720 +.00000017 +00000-0 +96614-5 0  9991
2  4579 074.0038 334.1523 0009595 049.1876 311.0120 14.60489368648480
Epoch (UTC): 19 September 2020 14:09:17
Eccentricity: 0.0009595
inclination: 74.0038°
perigee height: 685 km
apogee height: 698 km
right ascension of ascending node: 334.1523°
argument of perigee: 49.1876°
revolutions per day: 14.60489368
mean anomaly at epoch: 311.0120°
orbit number at epoch: 64848

The dashed part of the orbit path shows where the satellite is in the earth's shadow,  

DLR